Weather History for KAIG - July, 2013

Change the Weather History Date:

Wednesday, July 24, 2013

  Actual Average (KAUW) Record (KAUW)
Temperature  
Mean Temperature 57 °F 69 °F  
Max Temperature 70 °F 80 °F 99 °F (1934)
Min Temperature 44 °F 59 °F 44 °F (1992)
Degree Days  
Heating Degree Days 8 1  
Month to date heating degree days 24  
Since 1 June heating degree days 113  
Since 1 July heating degree days 24  
Cooling Degree Days 0 5  
Month to date cooling degree days 120  
Year to date cooling degree days 224  
Since 1 June cooling degree days 205  
Growing Degree Days 7 (Base 50)    
Moisture  
Dew Point 50 °F    
Average Humidity 76    
Maximum Humidity 99    
Minimum Humidity 47    
Precipitation  
Precipitation 0.00 in 0.12 in 2.50 in (1912)
Month to date precipitation 2.93  
Year to date precipitation 17.15  
Snow  
Snow 0.00 in 0.00 in 0.00 in ()
Month to date snowfall 0.0  
Since 1 July snowfall 0.0  
Snow Depth -    
Sea Level Pressure  
Sea Level Pressure 30.06 in    
Wind  
Wind Speed 1 mph (West)    
Max Wind Speed 8 mph    
Max Gust Speed -    
Visibility 10 miles    
Events      
T = Trace of Precipitation, MM = Missing Value Source: NWS Daily Summary

Daily Weather History Graph

Daily Weather History Graph

Search for Another Location

Airport or City:

Trip Planner

Search our weather history database for the weather conditions in past years. The results will help you decide how hot, cold, wet, or windy it might be!

Date:

Astronomy

Jul. 24, 2013 Rise Set
Actual Time 5:32 AM CDT 8:32 PM CDT
Civil Twilight 4:57 AM CDT 9:07 PM CDT
Nautical Twilight 4:13 AM CDT 9:51 PM CDT
Astronomical Twilight 3:19 AM CDT 10:44 PM CDT
Moon 9:27 PM CDT (7/24) 8:01 AM CDT (7/24)
Length of Visible Light 16h 09m
Length of Day
14h 59m
Waning Gibbous, 94% of the Moon is Illuminated
Jul 24
Waning Gibbous
Jul 29
Last Quarter
Aug 6
New
Aug 14
First Quarter
Aug 20
Full

Hourly Weather History & Observations

Time (CDT) Temp. Windchill Dew Point Humidity Pressure Visibility Wind Dir Wind Speed Gust Speed Precip Events Conditions
12:15 AM 48.6 °F - 47.5 °F 96% 30.04 in 10.0 mi Calm Calm - N/A   Clear
12:35 AM 49.1 °F - 47.5 °F 94% 30.05 in 10.0 mi Calm Calm - N/A   Clear
12:55 AM 48.9 °F - 46.9 °F 93% 30.04 in 10.0 mi Calm Calm - N/A   Clear
1:15 AM 47.3 °F - 46.6 °F 97% 30.05 in 10.0 mi Calm Calm - N/A   Clear
1:35 AM 47.5 °F - 46.6 °F 97% 30.05 in 10.0 mi Calm Calm - N/A   Clear
1:55 AM 47.3 °F - 45.9 °F 95% 30.05 in 10.0 mi Calm Calm - N/A   Clear
2:15 AM 47.3 °F - 46.2 °F 96% 30.05 in 10.0 mi Calm Calm - N/A   Clear
2:35 AM 47.1 °F - 46.6 °F 98% 30.05 in 10.0 mi Calm Calm - N/A   Clear
2:55 AM 46.4 °F - 45.5 °F 97% 30.05 in 10.0 mi Calm Calm - N/A   Clear
3:15 AM 46.4 °F - 45.7 °F 97% 30.06 in 10.0 mi Calm Calm - N/A   Clear
3:35 AM 46.0 °F - 45.5 °F 98% 30.05 in 10.0 mi Calm Calm - N/A   Clear
3:55 AM 45.1 °F 43.7 °F 44.6 °F 98% 30.05 in 10.0 mi North 3.5 mph - N/A   Clear
4:15 AM 45.3 °F - 44.8 °F 98% 30.06 in 10.0 mi Calm Calm - N/A   Clear
4:35 AM 45.1 °F - 44.6 °F 98% 30.07 in 10.0 mi Calm Calm - N/A   Clear
4:55 AM 44.8 °F - 44.6 °F 99% 30.07 in 10.0 mi Calm Calm - N/A   Clear
5:15 AM 44.6 °F - 44.4 °F 99% 30.07 in 10.0 mi Calm Calm - N/A   Clear
5:35 AM 44.2 °F - 43.9 °F 99% 30.08 in 10.0 mi Calm Calm - N/A   Clear
5:55 AM 44.2 °F - 43.7 °F 98% 30.08 in 10.0 mi Calm Calm - N/A   Clear
6:15 AM 45.1 °F - 44.8 °F 99% 30.09 in 10.0 mi Calm Calm - N/A   Clear
6:35 AM 45.7 °F - 45.0 °F 97% 30.09 in 10.0 mi Calm Calm - N/A   Clear
6:55 AM 47.7 °F - 46.9 °F 97% 30.09 in 10.0 mi Calm Calm - N/A   Clear
7:15 AM 50.2 °F - 48.9 °F 95% 30.09 in 10.0 mi Calm Calm - N/A   Clear
7:35 AM 51.6 °F - 49.6 °F 93% 30.09 in 10.0 mi Calm Calm - N/A   Clear
7:55 AM 52.9 °F - 50.4 °F 91% 30.09 in 10.0 mi Calm Calm - N/A   Clear
8:15 AM 55.2 °F - 51.4 °F 87% 30.10 in 10.0 mi Calm Calm - N/A   Clear
8:35 AM 57.4 °F - 52.9 °F 85% 30.10 in 10.0 mi Calm Calm - N/A   Clear
8:55 AM 59.2 °F - 52.3 °F 78% 30.10 in 5.0 mi Calm Calm - N/A   Haze
9:15 AM 59.2 °F - 50.7 °F 74% 30.10 in 5.0 mi Calm Calm - N/A   Haze
9:35 AM 62.1 °F - 50.4 °F 65% 30.11 in 7.0 mi West 3.5 mph - N/A   Clear
9:55 AM 63.3 °F - 49.3 °F 60% 30.11 in 10.0 mi WNW 4.6 mph - N/A   Clear
10:15 AM 63.9 °F - 48.6 °F 57% 30.11 in 10.0 mi NNW 3.5 mph - N/A   Clear
10:35 AM 64.2 °F - 49.8 °F 59% 30.10 in 10.0 mi NW 4.6 mph - N/A   Scattered Clouds
10:55 AM 65.3 °F - 48.2 °F 54% 30.10 in 10.0 mi Calm Calm - N/A   Scattered Clouds
11:15 AM 66.7 °F - 49.8 °F 54% 30.10 in 10.0 mi Calm Calm - N/A   Clear
11:35 AM 66.4 °F - 50.0 °F 56% 30.10 in 10.0 mi West 4.6 mph - N/A   Mostly Cloudy
11:55 AM 66.9 °F - 48.7 °F 52% 30.09 in 10.0 mi North 5.8 mph - N/A   Mostly Cloudy
12:15 PM 65.1 °F - 50.5 °F 59% 30.09 in 10.0 mi NW 4.6 mph - N/A   Mostly Cloudy
12:35 PM 67.6 °F - 48.6 °F 50% 30.08 in 10.0 mi NNE 5.8 mph - N/A   Overcast
12:55 PM 66.7 °F - 48.0 °F 51% 30.08 in 10.0 mi West 4.6 mph - N/A   Overcast
1:15 PM 66.2 °F - 50.2 °F 56% 30.08 in 10.0 mi WNW 3.5 mph - N/A   Mostly Cloudy
1:35 PM 69.3 °F - 49.8 °F 50% 30.07 in 10.0 mi Calm Calm - N/A   Mostly Cloudy
1:55 PM 68.9 °F - 50.4 °F 52% 30.06 in 10.0 mi North 3.5 mph - N/A   Overcast
2:15 PM 69.1 °F - 48.0 °F 47% 30.06 in 10.0 mi Calm Calm - N/A   Mostly Cloudy
2:35 PM 68.2 °F - 50.7 °F 54% 30.06 in 10.0 mi South 4.6 mph - N/A   Mostly Cloudy
2:55 PM 68.2 °F - 49.3 °F 51% 30.05 in 10.0 mi Calm Calm - N/A   Mostly Cloudy
3:15 PM 67.5 °F - 48.0 °F 50% 30.05 in 10.0 mi Calm Calm - N/A   Mostly Cloudy
3:35 PM 70.2 °F - 50.5 °F 50% 30.05 in 10.0 mi Calm Calm - N/A   Mostly Cloudy
3:55 PM 68.0 °F - 50.5 °F 54% 30.04 in 10.0 mi WSW 4.6 mph - N/A   Mostly Cloudy
4:15 PM 66.6 °F - 52.3 °F 60% 30.04 in 10.0 mi SSW 4.6 mph - N/A   Overcast
4:35 PM 69.4 °F - 51.4 °F 53% 30.04 in 10.0 mi SSW 3.5 mph - N/A   Overcast
4:55 PM 66.7 °F - 51.4 °F 58% 30.03 in 10.0 mi South 3.5 mph - N/A   Overcast
5:15 PM 66.2 °F - 51.6 °F 59% 30.04 in 10.0 mi SW 8.1 mph - N/A   Overcast
5:35 PM 66.6 °F - 51.3 °F 58% 30.04 in 10.0 mi West 6.9 mph - N/A   Overcast
5:55 PM 66.4 °F - 51.6 °F 59% 30.03 in 10.0 mi WSW 5.8 mph - N/A   Overcast
6:15 PM 66.6 °F - 52.5 °F 61% 30.04 in 10.0 mi West 5.8 mph - N/A   Overcast
6:35 PM 65.7 °F - 53.2 °F 64% 30.04 in 10.0 mi WSW 6.9 mph - N/A   Overcast
6:55 PM 66.0 °F - 52.2 °F 61% 30.04 in 10.0 mi West 4.6 mph - N/A   Overcast
7:15 PM 65.5 °F - 52.0 °F 62% 30.04 in 10.0 mi West 4.6 mph - N/A   Overcast
7:35 PM 63.5 °F - 53.6 °F 70% 30.04 in 10.0 mi WSW 3.5 mph - N/A   Overcast
7:55 PM 63.3 °F - 53.6 °F 71% 30.04 in 10.0 mi West 3.5 mph - N/A   Overcast
8:15 PM 62.8 °F - 54.3 °F 74% 30.04 in 10.0 mi Calm Calm - N/A   Overcast
8:35 PM 62.1 °F - 55.8 °F 80% 30.04 in 10.0 mi South 3.5 mph - N/A   Overcast
8:55 PM 61.0 °F - 56.3 °F 85% 30.04 in 10.0 mi Calm Calm - N/A   Overcast
9:15 PM 61.7 °F - 55.6 °F 80% 30.04 in 10.0 mi Calm Calm - N/A   Overcast
9:35 PM 59.9 °F - 56.3 °F 88% 30.04 in 10.0 mi Calm Calm - N/A   Overcast
9:55 PM 59.9 °F - 55.8 °F 86% 30.04 in 10.0 mi Calm Calm - N/A   Overcast
10:15 PM 59.9 °F - 56.3 °F 88% 30.04 in 10.0 mi Calm Calm - N/A   Overcast
10:35 PM 58.6 °F - 55.9 °F 91% 30.05 in 10.0 mi Calm Calm - N/A   Overcast
10:55 PM 58.6 °F - 56.3 °F 92% 30.05 in 10.0 mi Calm Calm - N/A   Overcast
11:15 PM 58.8 °F - 55.8 °F 90% 30.05 in 10.0 mi Calm Calm - N/A   Overcast
11:35 PM 58.3 °F - 56.3 °F 93% 30.05 in 10.0 mi Calm Calm - N/A   Overcast
11:55 PM 58.3 °F - 55.8 °F 91% 30.05 in 10.0 mi Calm Calm - N/A   Overcast